Simultaneous Nadir Overpasses (SNOs) Predictions

Prediction of SNOs between GOES-17 and AQUA Satellite Orbit:

Table of predicted SNOs for the next 14.0 days since TLE Epoch: 7/25/2025
Index Date Time (GOES-17) GOES-17 Lat,Lon AQUA Lat,Lon Distance(km) Time Diff (sec)
1 07/27/2025 08:31:02 -0.11, -89.47 -0.92, -85.63 437.18 80
2 07/27/2025 20:47:39 0.12, -89.51 -0.03, -90.29 88.19 80
3 07/29/2025 20:29:53 0.12, -89.52 1.00, -85.28 481.89 80
4 07/30/2025 08:46:21 -0.12, -89.49 -0.02, -89.91 47.89 80
5 08/01/2025 20:45:11 0.13, -89.54 0.09, -89.56 4.22 80
6 08/04/2025 08:43:53 -0.14, -89.52 -0.22, -89.18 38.66 80
7 08/04/2025 21:03:08 0.14, -89.56 -0.77, -93.84 486.54 80
8 08/06/2025 20:45:22 0.15, -89.57 0.31, -88.83 84.54 80
9 08/07/2025 09:04:28 -0.15, -89.54 0.72, -93.44 444.71 80
